EW3732 Weather Reports


Display with metric or nautical units.
time (UTC)temp
F
wind
direction
speed
MPH
gust
MPH
rain 1hr
in
rain 24hr
in
rain mn
in
humidity
%
barometer
mb
20180217185915 34 255 0.0 2.0 0.16 0.87 0.74 94 1002.4
20180217184414 33 255 0.0 0.0 0.17 0.84 0.71 95 1002.9
20180217182910 33 255 0.0 2.0 0.17 0.80 0.67 94 1003.3
20180217181406 33 256 0.0 0.0 0.16 0.76 0.63 94 1003.9
20180217175903 33 256 0.0 0.0 0.14 0.72 0.56 94 1005.8
20180217174359 33 256 0.0 0.0 0.13 0.68 0.53 94 1006.2
20180217172858 33 256 0.0 1.0 0.13 0.65 0.50 94 1006.6
20180217171356 34 256 0.0 0.0 0.14 0.62 0.47 93 1006.7
20180217165852 34 256 0.0 0.0 0.13 0.60 0.43 93 1007.6
20180217164350 34 256 0.0 0.0 0.13 0.56 0.40 92 1007.9
20180217162848 34 256 0.0 0.0 0.12 0.53 0.36 93 1008.2
20180217161350 34 256 0.0 0.0 0.12 0.50 0.33 93 1008.4
20180217155844 34 256 0.0 0.0 0.12 0.50 0.30 93 1009.0
20180217154341 34 256 0.0 0.0 0.10 0.47 0.27 93 1009.5
20180217152839 34 256 0.0 0.0 0.09 0.44 0.24 93 1009.7
20180217151335 33 256 0.0 0.0 0.08 0.41 0.21 94 1010.2
20180217145832 34 256 0.0 0.0 0.07 0.45 0.18 93 1010.4
20180217144329 34 256 0.0 0.0 0.07 0.44 0.17 93 1010.8
20180217142827 34 256 0.0 0.0 0.08 0.42 0.15 93 1011.3
20180217141326 34 256 0.0 1.0 0.08 0.40 0.13 93 1011.7
20180217135821 35 256 0.0 0.0 0.08 0.44 0.11 93 1012.0
20180217134318 35 254 0.0 4.0 0.10 0.43 0.10 93 1012.4
20180217132815 36 261 1.0 4.0 0.07 0.40 0.07 92 1012.9
20180217131309 36 242 0.0 4.0 0.05 0.38 0.05 93 1013.3
20180217125810 37 222 1.0 8.0 0.02 0.39 0.02 93 1013.7
20180217124407 37 284 0.0 2.0 0.00 0.37 0.00 93 1013.9
20180217122804 37 258 0.0 8.0 0.00 0.37 0.00 92 1013.5
20180217121304 37 355 2.0 7.0 0.00 0.37 0.00 92 1014.1
20180217115759 37 221 0.0 4.0 0.00 0.39 0.00 92 1014.7
20180217114256 37 275 0.0 4.0 0.00 0.39 0.00 92 1015.1
20180217112753 37 300 1.0 4.0 0.00 0.39 0.00 91 1015.5
20180217111250 38 298 1.0 5.0 0.00 0.39 0.00 91 1016.0
20180217105752 38 217 1.0 5.0 0.00 0.40 0.00 90 1016.3
20180217104246 38 304 1.0 8.0 0.00 0.40 0.00 90 1016.7
20180217102744 38 283 1.0 8.0 0.00 0.40 0.00 89 1016.8
20180217101240 38 321 1.0 6.0 0.00 0.40 0.00 89 1017.2
20180217095737 38 230 2.0 7.0 0.00 0.41 0.00 89 1017.5
20180217094238 38 287 3.0 7.0 0.00 0.41 0.00 90 1017.7
20180217092734 38 348 0.0 5.0 0.00 0.41 0.00 90 1018.1
20180217091233 38 264 1.0 5.0 0.00 0.41 0.00 90 1018.4
20180217085729 38 221 1.0 8.0 0.00 0.41 0.00 92 1018.5
20180217084230 38 270 1.0 4.0 0.00 0.41 0.00 92 1018.6
20180217082727 38 319 0.0 5.0 0.01 0.41 0.00 92 1018.8
20180217081225 38 310 0.0 4.0 0.01 0.41 0.00 92 1018.7
20180217075723 38 308 2.0 5.0 0.01 0.42 0.41 92 1018.9
20180217074223 38 360 2.0 6.0 0.01 0.42 0.41 92 1019.1
20180217072720 38 317 1.0 8.0 0.00 0.41 0.40 92 1019.1
20180217071222 39 311 1.0 8.0 0.00 0.41 0.40 91 1019.4
20180217065720 38 341 1.0 8.0 0.00 0.41 0.40 91 1019.5
20180217064218 38 296 4.0 7.0 0.01 0.41 0.40 92 1019.7
20180217062718 38 298 2.0 6.0 0.02 0.41 0.40 92 1019.6
20180217061218 39 218 3.0 10.0 0.03 0.41 0.40 92 1019.7
20180217055716 39 244 3.0 9.0 0.03 0.41 0.40 92 1019.8
20180217054216 39 273 1.0 7.0 0.01 0.39 0.38 92 1019.8
20180217052719 39 339 1.0 9.0 0.01 0.39 0.38 92 1019.8
20180217051216 39 281 2.0 9.0 0.00 0.38 0.37 92 1019.9
20180217045715 39 288 4.0 11.0 0.00 0.38 0.37 91 1019.7
20180217044216 39 284 7.0 12.0 0.00 0.38 0.37 90 1019.7
20180217042715 39 227 4.0 12.0 0.00 0.38 0.37 91 1019.6
20180217041213 39 295 6.0 18.0 0.00 0.38 0.37 91 1019.5
20180217035712 40 327 4.0 13.0 0.00 0.38 0.37 90 1019.6
20180217034212 39 288 7.0 13.0 0.00 0.38 0.37 90 1019.7
20180217032710 39 279 4.0 12.0 0.00 0.38 0.37 91 1019.7
20180217031210 39 294 5.0 13.0 0.00 0.38 0.37 90 1019.5
20180217025708 39 284 4.0 18.0 0.01 0.38 0.37 90 1019.6
20180217024209 39 300 6.0 12.0 0.01 0.38 0.37 92 1019.4
20180217022708 39 285 6.0 16.0 0.02 0.38 0.37 92 1019.5
20180217021210 39 350 4.0 13.0 0.02 0.38 0.37 92 1019.2
20180217015709 39 355 8.0 19.0 0.01 0.37 0.36 92 1019.3
20180217014208 39 350 9.0 20.0 0.02 0.37 0.36 92 1019.1
20180217012708 39 355 6.0 26.0 0.02 0.36 0.35 92 1019.0
20180217011206 38 275 7.0 17.0 0.03 0.36 0.35 93 1018.8
20180217005704 38 247 4.0 12.0 0.03 0.36 0.35 93 1019.0
20180217004204 38 5 8.0 21.0 0.02 0.35 0.34 93 1019.1
20180217002702 39 308 7.0 15.0 0.01 0.34 0.33 92 1019.0
20180217001202 39 327 4.0 16.0 0.00 0.33 0.32 92 1019.0
20180216235702 38 338 3.0 11.0 0.01 0.33 0.32 93 1019.3
20180216234200 38 299 5.0 18.0 0.02 0.33 0.32 92 1019.1
20180216232700 38 315 5.0 15.0 0.02 0.33 0.32 92 1019.1
20180216231200 38 305 7.0 18.0 0.02 0.33 0.32 92 1019.2
20180216225658 38 270 5.0 16.0 0.01 0.32 0.31 92 1019.2
20180216224157 38 294 8.0 17.0 0.00 0.31 0.30 90 1018.9
20180216222657 38 309 9.0 18.0 0.00 0.31 0.30 91 1019.0
20180216221156 38 294 6.0 16.0 0.00 0.31 0.30 92 1018.9
20180216215656 38 333 3.0 16.0 0.00 0.31 0.30 91 1019.1
20180216214154 38 276 6.0 17.0 0.00 0.31 0.30 91 1019.0
20180216212656 38 346 4.0 18.0 0.00 0.31 0.30 90 1019.1
20180216211156 39 269 5.0 15.0 0.00 0.31 0.30 89 1019.2
20180216205652 39 333 4.0 14.0 0.00 0.31 0.30 88 1019.1
20180216204150 39 14 5.0 15.0 0.00 0.31 0.30 90 1019.3
20180216202650 38 340 4.0 16.0 0.01 0.31 0.30 90 1019.2
20180216201143 38 322 3.0 15.0 0.01 0.31 0.30 91 1019.6
20180216195641 37 337 5.0 18.0 0.01 0.31 0.30 92 1019.8
20180216194137 37 311 8.0 20.0 0.01 0.31 0.30 92 1020.1
20180216192639 37 339 5.0 16.0 0.01 0.30 0.28 92 1020.2
20180216191132 36 302 4.0 18.0 0.01 0.30 0.28 93 1020.4